Regional Weather Roundup
Issued by NWS

Home | Current Version | Previous Version | Text Only | Print | Product List | Glossary On
Versions: 1 2 3 4 5 6 7 8 9 10 11 12 13 14 15 16 17 18 19 20 21 22 23 24 25 26 27 28 29 30 31 32 33 34 35 36 37 38 39 40 41 42 43 44 45 46 47 48 49 50
000
ASUS46 KSEW 020110
RWRWA

WASHINGTON REGIONAL WEATHER ROUNDUP
NATIONAL WEATHER SERVICE SEATTLE WA
600 PM PDT FRI AUG 01 2014

NOTE:"FAIR" INDICATES FEW OR NO CLOUDS BELOW 12,000 FEET WITH NO
SIGNIFICANT WEATHER AND/OR OBSTRUCTIONS TO VISIBILITY.

WAZ505-507>509-020200-
SEATTLE, TACOMA, EVERETT, AND VICINITY

CITY           SKY/WX    TMP DP  RH WIND       PRES   REMARKS
EVERETT        PTSUNNY   78  56  46 N6        29.99F
BOEING FIELD   MOSUNNY   80  54  40 NW8       29.95F
RENTON         MOSUNNY   83  57  41 NW10      29.94F
SEATAC AIRPORT MOSUNNY   81  53  37 W10       29.97F
JBLM-MCCHORD   SUNNY     83  55  36 NW8       29.96F
PUYALLUP       FAIR      82  54  36 N3        29.98S
JBLM-FT LEWIS  SUNNY     83  53  35 W8        29.96F
TACOMA NARROWS SUNNY     82  50  32 N8        29.97S
$$

WAZ001-503-506-510-514-515-020200-
NORTH INTERIOR

CITY           SKY/WX    TMP DP  RH WIND       PRES   REMARKS
BELLINGHAM     CLOUDY    72  58  61 S7        29.99S
FRIDAY HARBOR  CLOUDY    67  53  61 NW5       29.98F
EASTSOUND      CLOUDY    68  57  68 CALM      29.97F
PORT ANGELES   PTSUNNY   64  52  64 NW7       30.00F
NAS WHIDBEY    CLOUDY    63  52  67 SW3       29.99F
BURLINGTON     SUNNY     73  61  64 N9        29.98F
$$

WAZ020-022-039-040-504-511-512-020200-
SOUTHWEST INTERIOR

CITY           SKY/WX    TMP DP  RH WIND       PRES   REMARKS
SHELTON        SUNNY     87  51  28 CALM      29.94F
OLYMPIA        SUNNY     85  52  32 N9        29.96F
CHEHALIS       FAIR      86  55  35 VRB7      29.95S
KELSO          SUNNY     88  55  33 NW8       29.94S
VANCOUVER      SUNNY     89  56  32 NW10G17   29.88F
SCAPPOOSE, OR  SUNNY     89  57  33 NW12      29.88F
PORTLAND, OR   MOSUNNY   89  58  34 NW12      29.88F
$$

WAZ021-516-517-020200-
WASHINGTON COAST

CITY           SKY/WX    TMP DP  RH WIND       PRES   REMARKS
FORKS          SUNNY     73  55  53 W8        30.00F
HOQUIAM        SUNNY     71  56  58 W10       29.98F HAZE
ASTORIA, OR    SUNNY     68  56  65 NW10      29.99S
$$

WAZ019-023-024-040-518-519-020200-
CASCADE MOUNTAINS AND COLUMBIA GORGE

CITY           SKY/WX    TMP DP  RH WIND       PRES   REMARKS
STAMPEDE PASS  PTSUNNY   72  52  49 SW5       30.13
TROUTDALE, OR  SUNNY     89  60  37 W5        29.86F
THE DALLES, OR MOSUNNY   95  57  27 NW16      29.78F HX  94
$$

WAZ026-027-041>044-520-521-020200-
EAST SLOPES

CITY           SKY/WX    TMP DP  RH WIND       PRES   REMARKS
OMAK           CLOUDY    97  40  14 S10       29.90F HX  92
WENATCHEE      PTSUNNY   97  44  16 NW14      29.90S HX  93
ELLENSBURG     MOSUNNY   91  54  28 W8        29.94F
YAKIMA         PTSUNNY   93  58  30 W5        29.88F HX  92
$$

WAZ028-034-035-020200-
COLUMBIA BASIN

CITY           SKY/WX    TMP DP  RH WIND       PRES   REMARKS
EPHRATA        PTSUNNY   96  45  17 W13       29.89F HX  92
MOSES LAKE     MOSUNNY   99  43  14 SW7       29.88F HX  95
PASCO          SUNNY     99  56  23 NW3       29.81F HX  97
HERMISTON, OR  MOSUNNY   99  51  19 NE8       29.81F HX  96
$$

WAZ036>038-020200-
NORTHEAST WASHINGTON

CITY           SKY/WX    TMP DP  RH WIND       PRES   REMARKS
SPOKANE GEIGER PTSUNNY   93  33  12 NE7       29.97F
SPOKANE FELTS  MOSUNNY   96  36  12 VRB5      29.95F HX  91
FAIRCHILD AFB  MOSUNNY   92  33  12 N9        29.99S
COEURDALENE,ID PTSUNNY   93  43  17 NE7       29.95F
DEER PARK      PTSUNNY   92  40  16 NW7       29.97F
$$

WAZ029>033-020200-
SOUTHEAST WASHINGTON

CITY           SKY/WX    TMP DP  RH WIND       PRES   REMARKS
PULLMAN        MOSUNNY   94  40  15 VRB3      29.99S HX  90
LEWISTON, ID   MOSUNNY  100  41  13 NE8       29.88F HX  95
WALLA WALLA    SUNNY    100  46  16 W6        29.86F HX  96
PENDLETON, OR  PTSUNNY   95  45  17 W9        29.88S HX  91
$$



USA.gov is the U.S. government's official web portal to all federal, state and local government web resources and services.